Time,TemperatureF,DewpointF,PressureIn,WindDirection,WindDirectionDegrees,WindSpeedMPH,WindSpeedGustMPH,Humidity,HourlyPrecipIn,Conditions,Clouds,dailyrainin,SoftwareType,DateUTC
2013-07-24 00:00:00,65.9,59.0,29.76,North,5,5.0,12.0,77,0.00,,,0.85,weatherlink.com 1.10,2013-07-24 04:00:00,
2013-07-24 00:15:00,65.6,58.0,29.76,NNW,346,2.0,11.0,75,0.00,,,0.00,weatherlink.com 1.10,2013-07-24 04:15:00,
2013-07-24 00:30:00,65.1,57.0,29.77,North,9,7.0,10.0,75,0.00,,,0.00,weatherlink.com 1.10,2013-07-24 04:30:00,
2013-07-24 00:45:00,64.9,58.0,29.77,WNW,288,6.0,10.0,78,0.00,,,0.00,weatherlink.com 1.10,2013-07-24 04:45:00,
2013-07-24 01:00:00,64.6,57.0,29.78,NNW,348,6.0,11.0,76,0.00,,,0.00,weatherlink.com 1.10,2013-07-24 05:00:00,
2013-07-24 01:15:00,64.4,56.0,29.79,NNW,343,3.0,9.0,75,0.00,,,0.00,weatherlink.com 1.10,2013-07-24 05:15:00,
2013-07-24 01:30:00,64.3,56.0,29.79,NNW,333,4.0,9.0,75,0.00,,,0.00,weatherlink.com 1.10,2013-07-24 05:30:00,
2013-07-24 01:45:00,64.0,56.0,29.79,NNW,343,10.0,12.0,75,0.00,,,0.00,weatherlink.com 1.10,2013-07-24 05:45:00,
2013-07-24 02:00:00,63.5,55.0,29.79,NNW,335,5.0,10.0,74,0.00,,,0.00,weatherlink.com 1.10,2013-07-24 06:00:00,
2013-07-24 02:15:00,63.1,54.0,29.79,WNW,285,3.0,9.0,73,0.00,,,0.00,weatherlink.com 1.10,2013-07-24 06:15:00,
2013-07-24 02:30:00,63.4,53.0,29.79,North,360,4.0,12.0,70,0.00,,,0.00,weatherlink.com 1.10,2013-07-24 06:30:00,
2013-07-24 02:45:00,63.7,53.0,29.78,NE,44,6.0,12.0,69,0.00,,,0.00,weatherlink.com 1.10,2013-07-24 06:45:00,
2013-07-24 03:00:00,63.8,54.0,29.79,North,11,6.0,8.0,71,0.00,,,0.00,weatherlink.com 1.10,2013-07-24 07:00:00,
2013-07-24 03:15:00,63.7,54.0,29.78,NW,309,2.0,14.0,70,0.00,,,0.00,weatherlink.com 1.10,2013-07-24 07:15:00,
2013-07-24 03:30:00,63.6,54.0,29.79,NNW,345,6.0,11.0,72,0.00,,,0.00,weatherlink.com 1.10,2013-07-24 07:30:00,
2013-07-24 03:45:00,63.4,54.0,29.78,NNW,327,3.0,12.0,71,0.00,,,0.00,weatherlink.com 1.10,2013-07-24 07:45:00,
2013-07-24 04:00:00,63.2,54.0,29.78,NNE,12,1.0,10.0,71,0.00,,,0.00,weatherlink.com 1.10,2013-07-24 08:00:00,
2013-07-24 04:15:00,63.3,54.0,29.78,NW,315,2.0,9.0,71,0.00,,,0.00,weatherlink.com 1.10,2013-07-24 08:15:00,
2013-07-24 04:30:00,63.3,54.0,29.78,West,272,7.0,8.0,71,0.00,,,0.00,weatherlink.com 1.10,2013-07-24 08:30:00,
2013-07-24 04:45:00,63.2,54.0,29.78,NW,321,5.0,6.0,72,0.00,,,0.00,weatherlink.com 1.10,2013-07-24 08:45:00,
2013-07-24 05:00:00,63.1,53.0,29.79,WNW,302,1.0,10.0,70,0.00,,,0.00,weatherlink.com 1.10,2013-07-24 09:00:00,
2013-07-24 05:15:00,63.2,53.0,29.79,NNW,329,1.0,14.0,70,0.00,,,0.00,weatherlink.com 1.10,2013-07-24 09:15:00,
2013-07-24 05:30:00,62.9,54.0,29.79,WNW,294,7.0,15.0,72,0.00,,,0.00,weatherlink.com 1.10,2013-07-24 09:30:00,
2013-07-24 05:45:00,62.6,53.0,29.80,WNW,301,2.0,9.0,71,0.00,,,0.00,weatherlink.com 1.10,2013-07-24 09:45:00,
2013-07-24 06:01:00,62.3,53.0,29.80,NNW,329,5.0,15.0,72,0.00,,,0.00,weatherlink.com 1.10,2013-07-24 10:01:00,
2013-07-24 06:16:00,62.1,54.0,29.81,NNE,22,2.0,10.0,74,0.00,,,0.00,weatherlink.com 1.10,2013-07-24 10:16:00,
2013-07-24 06:31:00,62.0,54.0,29.82,NNW,336,8.0,13.0,75,0.00,,,0.00,weatherlink.com 1.10,2013-07-24 10:31:00,
2013-07-24 06:46:00,61.8,54.0,29.83,NE,43,6.0,10.0,75,0.00,,,0.00,weatherlink.com 1.10,2013-07-24 10:46:00,
2013-07-24 07:01:00,61.4,53.0,29.83,NNW,332,1.0,12.0,74,0.00,,,0.00,weatherlink.com 1.10,2013-07-24 11:01:00,
2013-07-24 07:17:00,61.4,53.0,29.84,North,355,6.0,6.0,74,0.00,,,0.00,weatherlink.com 1.10,2013-07-24 11:17:00,
2013-07-24 07:46:00,61.1,54.0,29.86,North,355,9.0,10.0,76,0.00,,,0.00,weatherlink.com 1.10,2013-07-24 11:46:00,
2013-07-24 08:16:00,60.6,53.0,29.87,North,9,3.0,12.0,75,0.00,,,0.00,weatherlink.com 1.10,2013-07-24 12:16:00,
2013-07-24 08:31:00,60.3,52.0,29.88,North,350,5.0,10.0,75,0.00,,,0.00,weatherlink.com 1.10,2013-07-24 12:31:00,
2013-07-24 08:46:00,59.9,52.0,29.89,NE,55,10.0,13.0,76,0.00,,,0.00,weatherlink.com 1.10,2013-07-24 12:46:00,
2013-07-24 09:01:00,59.4,51.0,29.89,NNE,22,5.0,11.0,75,0.00,,,0.00,weatherlink.com 1.10,2013-07-24 13:01:00,
2013-07-24 09:16:00,59.7,51.0,29.90,North,11,5.0,13.0,74,0.00,,,0.00,weatherlink.com 1.10,2013-07-24 13:16:00,
2013-07-24 09:31:00,59.6,51.0,29.91,NNW,341,5.0,11.0,74,0.00,,,0.00,weatherlink.com 1.10,2013-07-24 13:31:00,
2013-07-24 09:46:00,59.9,52.0,29.91,NNE,21,2.0,8.0,75,0.00,,,0.00,weatherlink.com 1.10,2013-07-24 13:46:00,
2013-07-24 10:01:00,59.8,51.0,29.92,North,355,5.0,12.0,73,0.00,,,0.00,weatherlink.com 1.10,2013-07-24 14:01:00,
2013-07-24 10:16:00,59.6,51.0,29.92,NE,50,8.0,9.0,74,0.00,,,0.00,weatherlink.com 1.10,2013-07-24 14:16:00,
2013-07-24 10:31:00,60.1,52.0,29.93,North,360,1.0,9.0,74,0.00,,,0.00,weatherlink.com 1.10,2013-07-24 14:31:00,
2013-07-24 10:46:00,60.3,52.0,29.93,North,5,4.0,9.0,73,0.00,,,0.00,weatherlink.com 1.10,2013-07-24 14:46:00,
2013-07-24 11:01:00,60.3,52.0,29.94,NE,46,5.0,9.0,73,0.00,,,0.00,weatherlink.com 1.10,2013-07-24 15:01:00,
2013-07-24 11:16:00,60.8,52.0,29.94,NNW,340,5.0,13.0,72,0.00,,,0.00,weatherlink.com 1.10,2013-07-24 15:16:00,
2013-07-24 11:31:00,60.9,52.0,29.95,NE,48,5.0,8.0,72,0.00,,,0.00,weatherlink.com 1.10,2013-07-24 15:31:00,
2013-07-24 11:46:00,61.6,52.0,29.95,NNW,340,9.0,11.0,72,0.00,,,0.00,weatherlink.com 1.10,2013-07-24 15:46:00,
2013-07-24 12:01:00,62.5,53.0,29.95,NE,42,5.0,11.0,71,0.00,,,0.00,weatherlink.com 1.10,2013-07-24 16:01:00,
2013-07-24 12:16:00,62.9,53.0,29.95,NNW,335,3.0,9.0,70,0.00,,,0.00,weatherlink.com 1.10,2013-07-24 16:16:00,
2013-07-24 12:32:00,63.0,53.0,29.95,NE,50,6.0,10.0,70,0.00,,,0.00,weatherlink.com 1.10,2013-07-24 16:32:00,
2013-07-24 12:46:00,62.1,53.0,29.95,NW,313,5.0,9.0,71,0.00,,,0.00,weatherlink.com 1.10,2013-07-24 16:46:00,
2013-07-24 13:01:00,63.0,53.0,29.96,ENE,57,3.0,12.0,71,0.00,,,0.00,weatherlink.com 1.10,2013-07-24 17:01:00,
2013-07-24 13:32:00,63.2,53.0,29.96,NE,45,4.0,13.0,69,0.00,,,0.00,weatherlink.com 1.10,2013-07-24 17:32:00,
2013-07-24 13:47:00,62.8,53.0,29.96,NNE,25,7.0,11.0,70,0.00,,,0.00,weatherlink.com 1.10,2013-07-24 17:47:00,
2013-07-24 14:02:00,63.6,53.0,29.96,NNW,343,4.0,9.0,68,0.00,,,0.00,weatherlink.com 1.10,2013-07-24 18:02:00,
2013-07-24 14:17:00,64.8,53.0,29.96,North,5,2.0,10.0,65,0.00,,,0.00,weatherlink.com 1.10,2013-07-24 18:17:00,
2013-07-24 14:32:00,64.0,52.0,29.96,ENE,61,7.0,12.0,65,0.00,,,0.00,weatherlink.com 1.10,2013-07-24 18:32:00,
2013-07-24 14:47:00,64.0,51.0,29.96,NNE,21,6.0,11.0,64,0.00,,,0.00,weatherlink.com 1.10,2013-07-24 18:47:00,
2013-07-24 15:02:00,64.1,52.0,29.96,NE,40,7.0,11.0,66,0.00,,,0.00,weatherlink.com 1.10,2013-07-24 19:02:00,
2013-07-24 15:17:00,65.0,51.0,29.96,NE,52,1.0,12.0,60,0.00,,,0.00,weatherlink.com 1.10,2013-07-24 19:17:00,
2013-07-24 15:32:00,65.0,52.0,29.96,North,360,6.0,8.0,63,0.00,,,0.00,weatherlink.com 1.10,2013-07-24 19:32:00,
2013-07-24 16:02:00,65.2,52.0,29.96,NE,46,6.0,12.0,62,0.00,,,0.00,weatherlink.com 1.10,2013-07-24 20:02:00,
2013-07-24 16:17:00,65.6,53.0,29.96,NE,42,4.0,11.0,63,0.00,,,0.00,weatherlink.com 1.10,2013-07-24 20:17:00,
2013-07-24 16:32:00,66.2,53.0,29.96,ENE,67,7.0,10.0,62,0.00,,,0.00,weatherlink.com 1.10,2013-07-24 20:32:00,
2013-07-24 16:47:00,66.3,52.0,29.96,East,87,3.0,9.0,60,0.00,,,0.00,weatherlink.com 1.10,2013-07-24 20:47:00,
2013-07-24 17:02:00,66.2,52.0,29.96,NNW,338,8.0,11.0,61,0.00,,,0.00,weatherlink.com 1.10,2013-07-24 21:02:00,
2013-07-24 17:17:00,66.8,53.0,29.96,North,360,2.0,7.0,61,0.00,,,0.00,weatherlink.com 1.10,2013-07-24 21:17:00,
2013-07-24 17:32:00,67.0,52.0,29.96,NNE,15,5.0,8.0,59,0.00,,,0.00,weatherlink.com 1.10,2013-07-24 21:32:00,
2013-07-24 17:47:00,66.9,52.0,29.96,NNW,336,1.0,8.0,60,0.00,,,0.00,weatherlink.com 1.10,2013-07-24 21:47:00,
2013-07-24 18:02:00,66.3,51.0,29.96,NNE,32,5.0,9.0,59,0.00,,,0.00,weatherlink.com 1.10,2013-07-24 22:02:00,
2013-07-24 18:17:00,66.8,53.0,29.96,NNE,15,4.0,9.0,61,0.00,,,0.00,weatherlink.com 1.10,2013-07-24 22:17:00,
2013-07-24 18:32:00,66.4,52.0,29.96,ENE,57,5.0,6.0,60,0.00,,,0.00,weatherlink.com 1.10,2013-07-24 22:32:00,
2013-07-24 18:47:00,66.5,52.0,29.96,North,355,3.0,6.0,60,0.00,,,0.00,weatherlink.com 1.10,2013-07-24 22:47:00,
2013-07-24 19:03:00,66.5,52.0,29.96,NW,311,1.0,5.0,61,0.00,,,0.00,weatherlink.com 1.10,2013-07-24 23:03:00,
2013-07-24 19:17:00,66.6,52.0,29.96,NNW,343,2.0,4.0,60,0.00,,,0.00,weatherlink.com 1.10,2013-07-24 23:17:00,
2013-07-24 19:32:00,66.6,52.0,29.97,North,5,2.0,4.0,60,0.00,,,0.00,weatherlink.com 1.10,2013-07-24 23:32:00,
2013-07-24 19:47:00,66.2,53.0,29.97,North,360,1.0,4.0,63,0.00,,,0.00,weatherlink.com 1.10,2013-07-24 23:47:00,
2013-07-24 20:02:00,65.8,54.0,29.97,North,360,2.0,3.0,65,0.00,,,0.00,weatherlink.com 1.10,2013-07-25 00:02:00,
2013-07-24 20:17:00,64.4,54.0,29.97,NNE,13,1.0,2.0,69,0.00,,,0.00,weatherlink.com 1.10,2013-07-25 00:17:00,
2013-07-24 20:32:00,63.4,54.0,29.97,NNE,13,0.0,0.0,71,0.00,,,0.00,weatherlink.com 1.10,2013-07-25 00:32:00,
2013-07-24 20:47:00,61.6,55.0,29.98,NNE,13,0.0,0.0,80,0.00,,,0.00,weatherlink.com 1.10,2013-07-25 00:47:00,
2013-07-24 21:02:00,59.8,56.0,29.98,NNE,13,0.0,1.0,87,0.00,,,0.00,weatherlink.com 1.10,2013-07-25 01:02:00,
2013-07-24 21:17:00,58.4,55.0,29.99,NNE,13,0.0,0.0,88,0.00,,,0.00,weatherlink.com 1.10,2013-07-25 01:17:00,
2013-07-24 21:32:00,57.3,55.0,30.00,NNE,13,0.0,1.0,92,0.00,,,0.00,weatherlink.com 1.10,2013-07-25 01:32:00,
2013-07-24 21:47:00,56.7,55.0,30.00,NNE,13,0.0,0.0,92,0.00,,,0.00,weatherlink.com 1.10,2013-07-25 01:47:00,
2013-07-24 22:02:00,56.2,55.0,30.00,NNE,13,0.0,0.0,94,0.00,,,0.00,weatherlink.com 1.10,2013-07-25 02:02:00,
2013-07-24 22:17:00,55.8,54.0,29.99,NNE,13,0.0,0.0,94,0.00,,,0.00,weatherlink.com 1.10,2013-07-25 02:17:00,
2013-07-24 22:32:00,55.3,54.0,30.00,NNE,13,0.0,1.0,94,0.00,,,0.00,weatherlink.com 1.10,2013-07-25 02:32:00,
2013-07-24 22:47:00,54.9,53.0,30.00,NNE,13,0.0,0.0,94,0.00,,,0.00,weatherlink.com 1.10,2013-07-25 02:47:00,
2013-07-24 23:02:00,54.5,53.0,30.00,NNE,13,0.0,1.0,95,0.00,,,0.00,weatherlink.com 1.10,2013-07-25 03:02:00,
2013-07-24 23:17:00,54.2,53.0,30.00,NNE,13,0.0,0.0,95,0.00,,,0.00,weatherlink.com 1.10,2013-07-25 03:17:00,
2013-07-24 23:32:00,53.9,53.0,30.00,NNE,13,0.0,1.0,95,0.00,,,0.00,weatherlink.com 1.10,2013-07-25 03:32:00,
2013-07-24 23:47:00,53.6,52.0,30.01,NNE,13,1.0,1.0,95,0.00,,,0.00,weatherlink.com 1.10,2013-07-25 03:47:00,